Miscellaneous Local Product
Issued by NWS Hastings, NE

Home | Current Version | Previous Version | Graphics & Text | Print | Product List | Glossary On
Versions: 1 2 3 4 5 6 7 8 9 10 11 12 13 14 15 16 17 18 19 20 21 22 23 24 25 26 27 28 29 30 31 32 33 34 35 36 37 38 39 40 41 42 43 44 45 46 47 48 49 50
000
AXUS43 KGID 181002
MISGRI

GID CWA HOURLY WEATHER ROUNDUP
NATIONAL WEATHER SERVICE HASTINGS NE
500 AM CDT SAT APR 18 2015

NOTE: "FAIR" INDICATES FEW OR NO CLOUDS BELOW 12,000 FEET WITH NO
SIGNIFICANT WEATHER AND/OR OBSTRUCTIONS TO VISIBILITY.

...SOUTH CENTRAL NEBRASKA...

CITY           SKY/WX    TMP DP  RH WIND       PRES   REMARKS
GRAND ISLAND   LGT RAIN  57  54  89 SE12      29.90F FOG
HASTINGS       CLOUDY    57  55  93 SE8       29.90F
KEARNEY        CLOUDY    55  54  94 W8        29.93S
ORD            NOT AVBL
YORK           CLOUDY    57  55  94 E8        29.91F
AURORA         CLOUDY    58  56  94 SE7       29.91F
LEXINGTON      LGT RAIN  55  53  95 NW14      29.91F
HOLDREGE       CLOUDY    54  52  93 W6        29.92F
HEBRON         CLOUDY    58  55  89 CALM      29.91S

...NEBRASKA PANHANDLE...

CITY           SKY/WX    TMP DP  RH WIND       PRES   REMARKS
CHADRON        LGT RAIN  47  46  97 N9        29.98F FOG
ALLIANCE       CLOUDY    45  44  97 CALM      29.95F
SCOTTSBLUFF    LGT RAIN  42  42 100 W7        29.97F
SIDNEY         CLOUDY    41  39  93 N12       29.94F

...WESTERN AND NORTH CENTRAL NEBRASKA...

CITY           SKY/WX    TMP DP  RH WIND       PRES   REMARKS
VALENTINE      RAIN      50  47  89 NE13      29.96F FOG
AINSWORTH      CLOUDY    52  50  94 NE10      29.95F
ONEILL         CLOUDY    54  49  84 N8        29.95F
BROKEN BOW     RAIN      54  52  93 E5        29.95R FOG
IMPERIAL       CLOUDY    47  45  93 CALM      29.92F
NORTH PLATTE   LGT RAIN  50  47  89 NW10      29.91F
MCCOOK         MOCLDY    49  46  90 N9        29.90F

...EASTERN NEBRASKA...

CITY           SKY/WX    TMP DP  RH WIND       PRES   REMARKS
NORFOLK        NOT AVBL
SO SIOUX CITY  CLOUDY    59  45  59 S7        29.98R
TEKAMAH        CLOUDY    59  51  75 N7        29.94F
COLUMBUS       CLOUDY    57  48  72 E8        29.94F
ALBION         CLOUDY    57  50  78 E9        29.92F
OMAHA EPPLEY   CLOUDY    62  54  74 NE5       29.93F
OFFUTT AFB     CLOUDY    59  56  91 E2        29.93F
MILLARD        CLOUDY    62  56  81 CALM      29.94S
LINCOLN        CLOUDY    61  55  81 SE7       29.92F
NEBRASKA CITY  CLOUDY    60  52  74 CALM      29.94F
BEATRICE       CLOUDY    59  55  86 E6        29.92F
FALLS CITY     CLOUDY    59  55  87 CALM      29.92F

...NORTHERN KANSAS...

CITY           SKY/WX    TMP DP  RH WIND       PRES   REMARKS
GOODLAND       FOG       39  39 100 NW5       29.91F VSB 1
HILL CITY      PTCLDY    48  46  93 SW3       29.92R
NORTON         SUNNY     48  45  87 N7        29.88F
PHILLIPSBURG   MOCLDY    55  55 100 SE6       29.91R
SMITH CENTER   CLOUDY    54  52  94 CALM      29.91F
BELOIT         CLOUDY    57  57 100 CALM      29.91S
HAYS           MOCLDY    52  43  71 S6        29.93S
RUSSELL        CLOUDY    54  51  90 N5        29.91F
CONCORDIA      CLOUDY    58  57  97 CALM      29.90F
SALINA         TSTM      61  58  90 S6        29.93R FOG
TOPEKA         CLOUDY    58  56  93 CALM      29.91F



USA.gov is the U.S. government's official web portal to all federal, state and local government web resources and services.